Location: BGSU Observatory
(41.3799°N, 83.6397°W)
Time: 00:55:11
(UTC-04:00)

Amateur Radio Satellites - All Passes

Search period start: 30 September 2016 00:25
Search period end: 01 October 2016 00:25
Location: BGSU Observatory, 41.3799°N, 83.6397°W

Satellite Date Start Highest point End Downlink Frequencies (MHz)
Time Altitude Azimuth
TIGRISAT 30 Sep 00:29:58 00:34:11 45° 288° (WNW) 00:38:28 435.000
50 SAT 30 Sep 00:34:36 00:38:13 72° 75° (ENE) 00:41:53 437.505
POPSAT HIP 1 30 Sep 00:36:06 00:39:45 28° 96° (E) 00:43:23 437.405
BEESAT 3 30 Sep 00:36:18 00:39:23 23° 113° (ESE) 00:42:30 437.485
UKube-1 30 Sep 00:36:51 00:40:51 38° 70° (ENE) 00:44:52 .
AUBIESAT-1 30 Sep 00:38:23 00:42:20 64° 70° (ENE) 00:46:02 437.475
ISS 30 Sep 00:40:54 00:42:59 15° 10° (N) 00:45:03 145.825
AISAT 30 Sep 00:41:38 00:46:06 86° 253° (WSW) 00:50:34 437.250
SO-50 30 Sep 00:42:47 00:47:21 75° 239° (WSW) 00:51:48 436.795
JAS-2 30 Sep 00:44:01 00:51:15 38° 94° (E) 00:58:02 435.910
Cosmos 2491 30 Sep 00:48:35 00:53:24 15° 58° (ENE) 00:58:11 435.465 / 435.565
NANOSAT C BR1 30 Sep 00:50:37 00:54:34 39° 98° (E) 00:58:31 145.865
DX 1 30 Sep 01:09:25 01:13:46 71° 257° (WSW) 01:18:09 434.975-435.025
UNISAT 6 30 Sep 01:12:29 01:15:17 17° 295° (WNW) 01:18:07 437.425
QB50P2 30 Sep 01:16:02 01:20:16 89° 97° (E) 01:24:31 145.880/145.840
M-CUBED/EXP-1 PRIME 30 Sep 01:18:02 01:21:47 33° 256° (WSW) 01:25:17 437.505
POLYITAN 1 30 Sep 01:18:12 01:22:27 89° 99° (E) 01:26:41 437.675
CUBEBUG 1 30 Sep 01:24:28 01:28:05 25° 265° (W) 01:31:43 437.445
VELOX 1 30 Sep 01:25:43 01:29:40 30° 263° (W) 01:33:37 145.980
TISAT 1 30 Sep 01:30:47 01:34:31 32° 70° (ENE) 01:38:15 437.305
BEESAT 2 30 Sep 01:35:35 01:39:24 50° 118° (ESE) 01:43:16 435.950
ESTCUBE 1 30 Sep 01:38:28 01:40:24 12° 270° (W) 01:42:20 437.505/2401.250
RS-15 30 Sep 01:43:22 01:52:34 23° 5° (N) 02:01:51 29.354- 29.394
BEESAT 30 Sep 01:45:19 01:46:41 11° 59° (ENE) 01:48:04 436.000
BUGSAT 1 30 Sep 01:46:03 01:50:02 62° 101° (E) 01:54:02 437.445
YUBILEINY 30 Sep 01:51:16 01:54:42 13° 74° (ENE) 01:58:07 435.215
DUCHIFAT 1 30 Sep 01:53:07 01:57:05 42° 288° (WNW) 02:01:03 145.980
SPROUT 30 Sep 01:54:36 01:58:11 26° 265° (W) 02:01:47 437.525
QB50P1 30 Sep 01:57:56 02:01:43 33° 290° (WNW) 02:05:30 145.935-145.965
Oscar 19 30 Sep 02:10:19 02:14:24 23° 94° (E) 02:18:25 437.125/150
POPSAT HIP 1 30 Sep 02:11:59 02:15:24 24° 292° (WNW) 02:18:50 437.405
BEESAT 3 30 Sep 02:13:21 02:16:52 31° 310° (NW) 02:20:26 437.485
UKube-1 30 Sep 02:13:57 02:17:01 19° 266° (W) 02:20:06 .
ISS 30 Sep 02:16:56 02:20:06 43° 30° (NNE) 02:23:16 145.825
NANOSAT C BR1 30 Sep 02:27:08 02:30:01 18° 294° (WNW) 02:32:53 145.865
JAS-2 30 Sep 02:28:51 02:36:17 47° 293° (WNW) 02:43:21 435.910
Cosmos 2491 30 Sep 02:43:04 02:51:57 75° 81° (E) 03:00:45 435.465 / 435.565
ITUPSAT 1 30 Sep 02:54:37 02:59:14 52° 72° (ENE) 03:03:53 437.325
SWISSCUBE 30 Sep 03:06:16 03:11:00 78° 76° (ENE) 03:15:48 437.505
TISAT 1 30 Sep 03:07:04 03:10:13 20° 266° (W) 03:13:22 437.305
ITAMSAT 1 30 Sep 03:11:43 03:12:03 10° 88° (E) 03:12:24 435.822/435.867
Cosmos 2504 30 Sep 03:12:02 03:15:30 14° 78° (ENE) 03:18:55 435.465 / 435.565
BEESAT 2 30 Sep 03:14:46 03:17:29 18° 316° (NW) 03:20:14 435.950
BEESAT 30 Sep 03:18:59 03:23:44 87° 257° (WSW) 03:28:32 436.000
BUGSAT 1 30 Sep 03:23:39 03:24:54 11° 297° (WNW) 03:26:07 437.445
Gurwin Techsat 1B 30 Sep 03:25:46 03:31:01 57° 101° (E) 03:36:15 435.225
YUBILEINY 30 Sep 03:41:06 03:49:49 73° 93° (E) 03:58:31 435.215
Oscar 19 30 Sep 03:49:01 03:53:52 42° 290° (WNW) 03:58:40 437.125/150
ISS 30 Sep 03:53:46 03:56:25 22° 226° (SW) 03:59:03 145.825
RS-15 30 Sep 03:58:15 04:09:47 42° 38° (NE) 04:21:08 29.354- 29.394
AO-7 30 Sep 03:58:38 04:04:36 21° 92° (E) 04:10:32 29.400- 29.500
AIST 2 30 Sep 04:17:45 04:21:51 86° 301° (WNW) 04:26:01 435.215
JAS-2 30 Sep 04:18:46 04:19:21 10° 313° (NW) 04:19:56 435.910
MOZHAYETS 4 30 Sep 04:24:33 04:29:06 75° 75° (ENE) 04:33:42
KKS-1 30 Sep 04:32:47 04:37:09 60° 73° (ENE) 04:41:33 437.445
ITUPSAT 1 30 Sep 04:34:21 04:37:22 17° 268° (W) 04:40:23 437.325
Cosmos 2491 30 Sep 04:41:23 04:47:49 23° 280° (W) 04:54:14 435.465 / 435.565
CUSAT 1 30 Sep 04:42:29 04:44:07 11° 51° (NE) 04:45:43 437.405
PCSat 30 Sep 04:42:49 04:48:08 61° 115° (ESE) 04:53:28 145.827
AO-85 30 Sep 04:45:04 04:47:03 13° 37° (NE) 04:48:57 145.980
ITAMSAT 1 30 Sep 04:46:57 04:52:12 88° 100° (E) 04:57:27 435.822/435.867
SWISSCUBE 30 Sep 04:48:16 04:49:21 11° 271° (W) 04:50:27 437.505
STARS 30 Sep 04:59:53 05:04:11 56° 73° (ENE) 05:08:28 437.465
Cosmos 2504 30 Sep 05:00:23 05:07:46 90° 146° (SE) 05:14:59 435.465 / 435.565
Gurwin Techsat 1B 30 Sep 05:06:47 05:10:31 20° 298° (WNW) 05:14:14 435.225
YUBILEINY 30 Sep 05:40:33 05:47:26 25° 294° (WNW) 05:54:21 435.215
HORYU 2 30 Sep 05:44:59 05:47:42 16° 92° (E) 05:50:24 437.375
AIST 1 30 Sep 05:46:47 05:51:06 62° 95° (E) 05:55:25
AO-7 30 Sep 05:49:52 05:58:11 80° 290° (WNW) 06:06:28 29.400- 29.500
CUBESAT XI-V 30 Sep 05:50:40 05:55:22 80° 75° (ENE) 06:00:07 437.345
AIST 2 30 Sep 05:59:17 06:00:59 12° 321° (NW) 06:02:42 435.215
MOZHAYETS 4 30 Sep 06:06:05 06:06:47 10° 272° (W) 06:07:30
RS-15 30 Sep 06:11:02 06:23:20 73° 244° (WSW) 06:35:18 29.354- 29.394
KKS-1 30 Sep 06:12:09 06:14:05 13° 269° (W) 06:16:01 437.445
CUSAT 1 30 Sep 06:20:42 06:28:12 55° 74° (ENE) 06:34:21 437.405
AO-85 30 Sep 06:23:59 06:28:09 85° 236° (SW) 06:32:03 145.980
O/OREOS (USA 219) 30 Sep 06:24:40 06:25:20 10° 96° (E) 06:26:01 437.305
PCSat 30 Sep 06:27:42 06:31:56 23° 314° (NW) 06:36:11 145.827
ITAMSAT 1 30 Sep 06:28:41 06:30:55 13° 302° (WNW) 06:33:09 435.822/435.867
DANDE 30 Sep 06:31:50 06:39:22 35° 68° (ENE) 06:46:20 436.750
STARS 30 Sep 06:38:48 06:40:52 13° 269° (W) 06:42:56 437.465
NOAA 15 30 Sep 06:40:51 06:44:22 18° 92° (E) 06:47:52 137.62
BRITE-PL 30 Sep 06:48:36 06:53:07 44° 97° (E) 06:57:18 437.365/2234.400
LilacSat-2 30 Sep 06:53:17 06:55:37 15° 92° (E) 06:57:57 437.200
Cosmos 2504 30 Sep 06:58:07 07:02:11 15° 297° (WNW) 07:06:13 435.465 / 435.565
CUTE-I 30 Sep 07:04:38 07:09:00 25° 94° (E) 07:13:20 437.470
Cubesat XI-IV 30 Sep 07:05:18 07:09:39 25° 94° (E) 07:14:00 437.490
HORYU 2 30 Sep 07:20:12 07:24:30 48° 288° (WNW) 07:28:47 437.375
AIST 1 30 Sep 07:27:29 07:29:07 12° 292° (WNW) 07:30:46
CUBESAT XI-V 30 Sep 07:32:42 07:33:18 10° 272° (W) 07:33:54 437.345
AO-7 30 Sep 07:44:21 07:49:43 19° 310° (NW) 07:55:05 29.400- 29.500
STRAND 1 30 Sep 07:53:20 07:58:24 71° 74° (ENE) 08:03:30 437.568
O/OREOS (USA 219) 30 Sep 07:59:29 08:04:02 75° 293° (WNW) 08:08:39 437.305
GOMX 1 30 Sep 08:03:08 08:07:29 70° 285° (WNW) 08:11:38 467.674
CUSAT 1 30 Sep 08:03:32 08:09:36 28° 277° (W) 08:14:49 437.405
GONETS M04 30 Sep 08:06:14 08:13:02 26° 81° (E) 08:19:50
NOAA 18 30 Sep 08:06:15 08:11:43 70° 103° (ESE) 08:17:11 137.9125
HO-68 30 Sep 08:06:39 08:10:57 17° 90° (E) 08:15:14 435.675
Cosmos 2499 30 Sep 08:06:59 08:11:10 17° 80° (E) 08:15:20 435.465 / 435.565
DOVE 4 30 Sep 08:11:34 08:15:41 57° 100° (E) 08:19:46 437.250
DANDE 30 Sep 08:14:21 08:22:30 56° 268° (W) 08:29:52 436.750
NOAA 15 30 Sep 08:19:19 08:24:31 58° 288° (WNW) 08:29:40 137.62
LilacSat-2 30 Sep 08:26:29 08:30:02 36° 288° (WNW) 08:33:35 437.200
RS-15 30 Sep 08:26:48 08:33:30 17° 265° (W) 08:40:08 29.354- 29.394
BRITE-PL 30 Sep 08:27:58 08:31:12 19° 297° (WNW) 08:34:17 437.365/2234.400
SEEDS 30 Sep 08:35:53 08:37:54 13° 90° (E) 08:39:54 437.485
CUTE 1.7 + AOD 2 30 Sep 08:38:12 08:41:26 20° 93° (E) 08:44:38 437.475
CANX-2 30 Sep 08:39:44 08:43:17 24° 95° (E) 08:46:49 2200.000
CUTE-I 30 Sep 08:44:09 08:49:10 42° 291° (WNW) 08:54:12 437.470
Cubesat XI-IV 30 Sep 08:44:50 08:49:52 42° 291° (WNW) 08:54:53 437.490
BEESAT 3 30 Sep 08:53:07 08:55:49 17° 44° (NE) 08:58:30 437.485
CINEMA 3 30 Sep 09:04:38 09:08:45 55° 100° (E) 09:12:59 145.822/145.860
PRISM 30 Sep 09:19:19 09:23:21 51° 73° (ENE) 09:27:24 437.425
STRAND 1 30 Sep 09:35:41 09:38:05 13° 270° (W) 09:40:30 437.568
COMPASS 1 30 Sep 09:36:16 09:40:17 42° 98° (E) 09:44:16 437.405
FUNcube-1 30 Sep 09:47:52 09:50:50 18° 93° (E) 09:53:48 145.935
NOAA 18 30 Sep 09:48:20 09:51:48 17° 300° (WNW) 09:55:15 137.9125
DOVE 4 30 Sep 09:51:11 09:52:54 12° 297° (WNW) 09:54:37 437.250
HO-68 30 Sep 09:52:18 09:59:29 86° 288° (WNW) 10:06:39 435.675
BEESAT 2 30 Sep 09:53:28 09:57:06 32° 50° (NE) 10:00:43 435.950
TIGRISAT 30 Sep 09:54:02 09:56:25 15° 64° (ENE) 09:58:49 435.000
CUBEBUG 2 30 Sep 09:54:31 09:58:45 53° 100° (E) 10:03:06 437.445
Cosmos 2499 30 Sep 09:56:13 10:03:20 77° 278° (W) 10:10:27 435.465 / 435.565
GONETS M04 30 Sep 10:00:14 10:09:01 69° 281° (W) 10:17:53
UWE-3 30 Sep 10:07:04 10:11:17 48° 99° (E) 10:15:36 435.000/436.395/437.385
SEEDS 30 Sep 10:09:44 10:13:55 53° 286° (WNW) 10:18:03 437.485
CUTE 1.7 + AOD 2 30 Sep 10:13:26 10:17:21 34° 289° (WNW) 10:21:14 437.475
CANX-2 30 Sep 10:15:23 10:19:06 29° 291° (WNW) 10:22:49 2200.000
Oscar 11 30 Sep 10:23:31 10:27:42 43° 99° (E) 10:31:51 145.826/435.025
AAUSAT CUBESAT 2 30 Sep 10:24:35 10:28:46 68° 284° (WNW) 10:32:54 437.432
BEESAT 3 30 Sep 10:29:53 10:33:46 52° 242° (WSW) 10:37:37 437.485
ZACube-1 30 Sep 10:30:24 10:34:41 55° 100° (E) 10:39:03 437.345
UNISAT 6 30 Sep 10:33:38 10:37:39 41° 71° (ENE) 10:41:40 437.425
CINEMA 3 30 Sep 10:43:29 10:45:29 13° 296° (WNW) 10:47:30 145.822/145.860
PRISM 30 Sep 10:56:54 10:58:56 13° 268° (W) 11:00:59 437.425
JAS-2 30 Sep 10:57:49 11:02:11 18° 54° (NE) 11:06:47 435.910
PHONESAT 2.4 30 Sep 10:57:51 11:00:32 35° 161° (SSE) 11:03:15 2401.200-2431.200
ANTELSAT 30 Sep 11:08:38 11:12:54 80° 259° (W) 11:17:11 437.575/2403.000
DUCHIFAT 1 30 Sep 11:11:36 11:13:25 13° 63° (ENE) 11:15:15 145.980
COMPASS 1 30 Sep 11:12:45 11:15:30 17° 295° (WNW) 11:18:14 437.405
QB50P1 30 Sep 11:15:53 11:18:30 16° 65° (ENE) 11:21:07 145.935-145.965
DELFI C3 30 Sep 11:21:40 11:25:42 80° 102° (ESE) 11:29:41 145.870
FUNcube-1 30 Sep 11:23:07 11:27:14 42° 287° (WNW) 11:31:24 145.935
TIGRISAT 30 Sep 11:28:35 11:32:42 49° 260° (W) 11:36:51 435.000
POPSAT HIP 1 30 Sep 11:28:58 11:32:12 22° 67° (ENE) 11:35:25 437.405
BEESAT 2 30 Sep 11:31:32 11:34:46 24° 247° (WSW) 11:37:59 435.950
CUBEBUG 2 30 Sep 11:32:33 11:34:59 15° 295° (WNW) 11:37:26 437.445
HO-68 30 Sep 11:41:47 11:46:12 18° 306° (NW) 11:50:37 435.675
NANOSAT C BR1 30 Sep 11:42:52 11:46:30 29° 69° (ENE) 11:50:07 145.865
UWE-3 30 Sep 11:44:41 11:47:24 16° 295° (WNW) 11:50:09 435.000/436.395/437.385
PCSat 30 Sep 11:50:21 11:51:07 10° 34° (NE) 11:51:52 145.827
ESTCUBE 1 30 Sep 11:52:55 11:55:03 13° 90° (E) 11:57:11 437.505/2401.250
Cosmos 2499 30 Sep 11:55:02 11:57:46 12° 300° (WNW) 12:00:31 435.465 / 435.565
Oscar 11 30 Sep 12:00:34 12:03:29 18° 295° (WNW) 12:06:24 145.826/435.025
HUMSAT D 30 Sep 12:02:57 12:07:13 72° 284° (WNW) 12:11:29 437.325/437.525
GONETS M04 30 Sep 12:03:31 12:07:43 14° 303° (WNW) 12:11:57
ZACube-1 30 Sep 12:08:08 12:10:33 15° 296° (WNW) 12:12:59 437.345
QB50P2 30 Sep 12:08:20 12:12:30 65° 75° (ENE) 12:16:41 145.880/145.840
POLYITAN 1 30 Sep 12:10:32 12:14:41 65° 75° (ENE) 12:18:51 437.675
UNISAT 6 30 Sep 12:11:51 12:14:34 16° 268° (W) 12:17:17 437.425
AISAT 30 Sep 12:32:46 12:35:42 17° 93° (E) 12:38:37 437.250
PHONESAT 2.4 30 Sep 12:33:33 12:36:28 75° 178° (S) 12:39:24 2401.200-2431.200
BUGSAT 1 30 Sep 12:35:38 12:39:29 42° 72° (ENE) 12:43:20 437.445
AIST 2 30 Sep 12:38:57 12:43:08 61° 55° (NE) 12:47:17 435.215
JAS-2 30 Sep 12:39:23 12:45:58 86° 76° (ENE) 12:53:27 435.910
DUCHIFAT 1 30 Sep 12:44:30 12:48:37 59° 259° (W) 12:52:44 145.980
QB50P1 30 Sep 12:49:54 12:53:55 44° 261° (W) 12:57:57 145.935-145.965
DX 1 30 Sep 12:58:21 13:01:28 19° 94° (E) 13:04:34 434.975-435.025
POPSAT HIP 1 30 Sep 13:04:03 13:07:48 31° 263° (W) 13:11:34 437.405
Gurwin Techsat 1B 30 Sep 13:10:49 13:13:02 13° 58° (ENE) 13:15:14 435.225
CUBEBUG 1 30 Sep 13:11:57 13:16:15 59° 101° (E) 13:20:29 437.445
VELOX 1 30 Sep 13:15:06 13:19:22 47° 100° (E) 13:23:35 145.980
NANOSAT C BR1 30 Sep 13:18:52 13:22:13 23° 265° (W) 13:25:33 145.865
Oscar 19 30 Sep 13:26:58 13:31:37 35° 68° (ENE) 13:36:18 437.125/150
ESTCUBE 1 30 Sep 13:27:45 13:32:14 59° 287° (WNW) 13:36:40 437.505/2401.250
PCSat 30 Sep 13:30:36 13:35:53 49° 56° (NE) 13:41:07 145.827
50 SAT 30 Sep 13:35:26 13:39:07 88° 104° (ESE) 13:42:45 437.505
SPROUT 30 Sep 13:39:30 13:43:39 50° 100° (E) 13:47:46 437.525
QB50P2 30 Sep 13:48:03 13:48:43 10° 270° (W) 13:49:23 145.880/145.840
POLYITAN 1 30 Sep 13:50:20 13:50:54 10° 270° (W) 13:51:28 437.675
AUBIESAT-1 30 Sep 13:51:03 13:54:11 38° 104° (ESE) 13:57:21 437.475
YUBILEINY 30 Sep 13:51:34 13:59:24 36° 71° (ENE) 14:07:11 435.215
Cosmos 2491 30 Sep 13:52:08 13:57:02 16° 76° (ENE) 14:01:57 435.465 / 435.565
UKube-1 30 Sep 13:59:19 14:03:38 70° 103° (ESE) 14:07:54 .
AISAT 30 Sep 14:08:13 14:12:22 42° 289° (WNW) 14:16:28 437.250
PHONESAT 2.4 30 Sep 14:09:37 14:12:28 49° 194° (SSW) 14:15:20 2401.200-2431.200
BUGSAT 1 30 Sep 14:12:40 14:15:03 15° 267° (W) 14:17:26 437.445
AIST 2 30 Sep 14:19:11 14:21:06 13° 251° (WSW) 14:23:00 435.215
ITAMSAT 1 30 Sep 14:27:50 14:31:14 18° 62° (ENE) 14:34:39 435.822/435.867
JAS-2 30 Sep 14:28:02 14:32:04 16° 275° (W) 14:36:21 435.910
M-CUBED/EXP-1 PRIME 30 Sep 14:31:03 14:34:09 41° 292° (WNW) 14:37:17 437.505
DX 1 30 Sep 14:33:46 14:37:47 37° 290° (WNW) 14:41:46 434.975-435.025
Gurwin Techsat 1B 30 Sep 14:46:52 14:52:11 89° 82° (E) 14:57:32 435.225
TISAT 1 30 Sep 14:49:28 14:53:36 57° 101° (E) 14:57:41 437.305
CUBEBUG 1 30 Sep 14:49:55 14:52:02 13° 297° (WNW) 14:54:07 437.445
Cosmos 2504 30 Sep 14:52:00 14:58:34 32° 72° (ENE) 15:05:28 435.465 / 435.565
VELOX 1 30 Sep 14:52:39 14:55:26 17° 296° (WNW) 14:58:13 145.980
ITUPSAT 1 30 Sep 14:56:44 14:59:01 13° 90° (E) 15:01:18 437.325
SO-50 30 Sep 14:56:47 15:01:09 35° 115° (ESE) 15:05:31 436.795
AO-7 30 Sep 14:57:37 15:04:42 33° 57° (ENE) 15:11:46 29.400- 29.500
Oscar 19 30 Sep 15:06:28 15:10:57 29° 265° (W) 15:15:27 437.125/150
SWISSCUBE 30 Sep 15:07:13 15:10:42 20° 93° (E) 15:14:10 437.505
PCSat 30 Sep 15:14:41 15:18:56 24° 253° (WSW) 15:23:09 145.827
SPROUT 30 Sep 15:16:44 15:19:10 15° 296° (WNW) 15:21:36 437.525
BEESAT 30 Sep 15:19:35 15:23:26 23° 95° (E) 15:27:14 436.000
AUBIESAT-1 30 Sep 15:27:05 15:28:21 12° 300° (WNW) 15:29:38 437.475
UKube-1 30 Sep 15:37:34 15:39:04 12° 299° (WNW) 15:40:36 .
Cosmos 2491 30 Sep 15:43:38 15:52:26 85° 95° (E) 16:01:20 435.465 / 435.565
PHONESAT 2.4 30 Sep 15:46:27 15:48:09 14° 209° (SSW) 15:49:51 2401.200-2431.200
YUBILEINY 30 Sep 15:48:09 15:56:26 51° 271° (W) 16:04:41 435.215
AIST 1 30 Sep 15:54:56 15:57:30 15° 70° (ENE) 16:00:03
ITAMSAT 1 30 Sep 16:05:07 16:10:12 60° 258° (WSW) 16:15:21 435.822/435.867
MOZHAYETS 4 30 Sep 16:20:27 16:23:37 18° 92° (E) 16:26:45
KKS-1 30 Sep 16:26:04 16:27:20 11° 90° (E) 16:28:35 437.445
TISAT 1 30 Sep 16:26:51 16:28:45 13° 297° (WNW) 16:30:39 437.305
O/OREOS (USA 219) 30 Sep 16:30:49 16:34:29 23° 57° (ENE) 16:38:07 437.305
Gurwin Techsat 1B 30 Sep 16:31:39 16:32:49 11° 272° (W) 16:33:59 435.225
ITUPSAT 1 30 Sep 16:32:30 16:37:17 66° 287° (WNW) 16:42:03 437.325
SO-50 30 Sep 16:37:22 16:41:39 31° 312° (NW) 16:45:55 436.795
HORYU 2 30 Sep 16:43:30 16:46:08 16° 63° (ENE) 16:48:46 437.375
SWISSCUBE 30 Sep 16:44:07 16:48:41 44° 289° (WNW) 16:53:14 437.505
Cosmos 2504 30 Sep 16:44:57 16:52:08 50° 269° (W) 16:59:47 435.465 / 435.565
AO-7 30 Sep 16:48:49 16:57:00 61° 257° (WSW) 17:05:13 29.400- 29.500
BEESAT 30 Sep 16:56:53 17:01:17 37° 291° (WNW) 17:05:40 436.000
AIST 1 30 Sep 17:31:16 17:35:20 43° 267° (W) 17:39:21
GOMX 1 30 Sep 17:34:42 17:37:45 16° 63° (ENE) 17:40:43 467.674
Cosmos 2491 30 Sep 17:44:09 17:50:26 21° 297° (WNW) 17:56:47 435.465 / 435.565
CUBESAT XI-V 30 Sep 17:48:05 17:51:29 20° 93° (E) 17:54:52 437.345
NOAA 18 30 Sep 17:54:27 17:58:08 19° 61° (ENE) 18:01:50 137.9125
MOZHAYETS 4 30 Sep 17:56:33 18:01:00 46° 288° (WNW) 18:05:25
BRITE-PL 30 Sep 17:57:48 18:03:21 57° 73° (ENE) 18:08:45 437.365/2234.400
KKS-1 30 Sep 17:59:56 18:04:20 67° 286° (WNW) 18:08:43 437.445
NOAA 15 30 Sep 18:00:33 18:05:06 30° 66° (ENE) 18:09:40 137.62
O/OREOS (USA 219) 30 Sep 18:09:45 18:14:01 38° 255° (WSW) 18:18:14 437.305
GONETS M04 30 Sep 18:17:15 18:20:18 12° 55° (NE) 18:23:20
HORYU 2 30 Sep 18:17:58 18:22:15 51° 260° (W) 18:26:34 437.375
STARS 30 Sep 18:25:12 18:29:34 74° 285° (WNW) 18:33:55 437.465
CUTE-I 30 Sep 18:26:21 18:31:17 41° 69° (ENE) 18:36:14 437.470
Cubesat XI-IV 30 Sep 18:27:11 18:32:08 41° 69° (ENE) 18:37:06 437.490
RS-15 30 Sep 18:27:13 18:34:03 18° 96° (E) 18:41:00 29.354- 29.394
HO-68 30 Sep 18:37:24 18:40:57 15° 51° (NE) 18:44:30 435.675
ISS 30 Sep 18:59:00 19:00:09 11° 129° (SE) 19:01:18 145.825
LilacSat-2 30 Sep 19:07:53 19:11:39 77° 258° (WSW) 19:15:26 437.200
GOMX 1 30 Sep 19:09:58 19:15:18 70° 258° (WSW) 19:20:24 467.674
DOVE 4 30 Sep 19:16:16 19:21:09 61° 75° (ENE) 19:25:46 437.250
CUSAT 1 30 Sep 19:20:09 19:26:27 54° 91° (E) 19:33:57 437.405
CUBESAT XI-V 30 Sep 19:24:37 19:29:02 42° 289° (WNW) 19:33:24 437.345
CUTE 1.7 + AOD 2 30 Sep 19:31:42 19:34:12 15° 64° (ENE) 19:36:43 437.475
NOAA 18 30 Sep 19:32:52 19:38:16 63° 258° (WSW) 19:43:43 137.9125
CANX-2 30 Sep 19:33:06 19:36:01 18° 66° (ENE) 19:38:58 2200.000
BRITE-PL 30 Sep 19:37:55 19:42:04 21° 268° (W) 19:46:10 437.365/2234.400
NOAA 15 30 Sep 19:39:54 19:44:45 36° 263° (W) 19:49:38 137.62
DANDE 30 Sep 19:39:58 19:44:38 28° 83° (E) 19:50:24 436.750
Cosmos 2499 30 Sep 19:45:57 19:52:57 37° 74° (ENE) 20:00:22 435.465 / 435.565
STRAND 1 30 Sep 20:04:21 20:08:30 24° 94° (E) 20:12:38 437.568
CINEMA 3 30 Sep 20:06:11 20:10:28 51° 74° (ENE) 20:14:36 145.822/145.860
CUTE-I 30 Sep 20:07:07 20:11:27 25° 266° (W) 20:15:49 437.470
Cubesat XI-IV 30 Sep 20:07:59 20:12:19 25° 266° (W) 20:16:41 437.490
GONETS M04 30 Sep 20:10:30 20:19:15 62° 78° (ENE) 20:27:52
HO-68 30 Sep 20:20:19 20:27:26 72° 71° (ENE) 20:34:34 435.675
COMPASS 1 30 Sep 20:27:04 20:30:39 28° 70° (ENE) 20:34:17 437.405
RS-15 30 Sep 20:32:43 20:44:15 77° 118° (ESE) 20:56:26 29.354- 29.394
ISS 30 Sep 20:32:56 20:36:11 79° 325° (NW) 20:39:27 145.825
AO-85 30 Sep 20:37:28 20:42:09 34° 115° (ESE) 20:46:37 145.980
FUNcube-1 30 Sep 20:44:40 20:46:41 13° 64° (ENE) 20:48:42 145.935
CUBEBUG 2 30 Sep 20:52:49 20:56:45 42° 72° (ENE) 21:00:40 437.445
DOVE 4 30 Sep 20:56:29 20:59:07 14° 269° (W) 21:01:43 437.250
SEEDS 30 Sep 21:00:54 21:05:06 80° 260° (W) 21:09:22 437.485
CUSAT 1 30 Sep 21:02:58 21:08:52 31° 294° (WNW) 21:15:38 437.405
UWE-3 30 Sep 21:04:20 21:08:08 36° 72° (ENE) 21:11:58 435.000/436.395/437.385
CUTE 1.7 + AOD 2 30 Sep 21:05:32 21:09:37 48° 261° (W) 21:13:46 437.475
CANX-2 30 Sep 21:07:36 21:11:34 39° 262° (W) 21:15:36 2200.000
AAUSAT CUBESAT 2 30 Sep 21:14:16 21:18:25 77° 76° (ENE) 21:22:38 437.432
Oscar 11 30 Sep 21:18:17 21:22:09 33° 70° (ENE) 21:26:03 145.826/435.025
DANDE 30 Sep 21:21:38 21:26:57 45° 289° (WNW) 21:33:49 436.750
ZACube-1 30 Sep 21:26:22 21:30:15 40° 72° (ENE) 21:34:09 437.345
Cosmos 2499 30 Sep 21:38:57 21:46:06 44° 271° (W) 21:53:46 435.465 / 435.565
STRAND 1 30 Sep 21:42:58 21:47:47 41° 291° (WNW) 21:52:36 437.568
CINEMA 3 30 Sep 21:45:33 21:47:51 14° 268° (W) 21:50:07 145.822/145.860
COMPASS 1 30 Sep 22:02:49 22:06:11 23° 266° (W) 22:09:36 437.405
DELFI C3 30 Sep 22:07:11 22:10:59 44° 73° (ENE) 22:14:50 145.870
GONETS M04 30 Sep 22:08:17 22:15:25 29° 278° (W) 22:22:29
HO-68 30 Sep 22:10:33 22:15:44 21° 268° (W) 22:20:58 435.675
ISS 30 Sep 22:10:40 22:13:05 19° 344° (NNW) 22:15:30 145.825
AO-85 30 Sep 22:17:55 22:22:36 34° 310° (NW) 22:27:01 145.980
FUNcube-1 30 Sep 22:18:27 22:22:28 52° 260° (W) 22:26:32 145.935
CUBEBUG 2 30 Sep 22:31:06 22:33:35 15° 268° (W) 22:36:04 437.445
PRISM 30 Sep 22:35:44 22:39:53 83° 104° (ESE) 22:43:59 437.425
UWE-3 30 Sep 22:41:58 22:44:45 17° 267° (W) 22:47:32 435.000/436.395/437.385
RS-15 30 Sep 22:47:07 22:57:58 39° 324° (NW) 23:09:17 29.354- 29.394
ESTCUBE 1 30 Sep 22:52:56 22:55:09 14° 62° (ENE) 22:57:21 437.505/2401.250
HUMSAT D 30 Sep 22:53:53 22:57:57 77° 76° (ENE) 23:02:06 437.325/437.525
Oscar 11 30 Sep 22:55:02 22:58:20 21° 266° (W) 23:01:40 145.826/435.025
ANTELSAT 30 Sep 23:00:32 23:03:56 21° 94° (E) 23:07:22 437.575/2403.000
ZACube-1 30 Sep 23:04:11 23:06:44 16° 268° (W) 23:09:18 437.345
TIGRISAT 30 Sep 23:19:40 23:23:39 31° 97° (E) 23:27:41 435.000
SO-50 30 Sep 23:28:02 23:32:12 32° 48° (NE) 23:36:15 436.795
AISAT 30 Sep 23:30:29 23:33:21 17° 64° (ENE) 23:36:13 437.250
M-CUBED/EXP-1 PRIME 30 Sep 23:43:54 23:46:35 18° 63° (ENE) 23:49:10 437.505
DELFI C3 30 Sep 23:43:55 23:46:03 14° 269° (W) 23:48:11 145.870
ISS 30 Sep 23:48:42 23:50:31 14° 4° (N) 23:52:21 145.825
JAS-2 30 Sep 23:51:14 23:55:27 15° 84° (E) 23:59:31 435.910
DX 1 30 Sep 23:54:14 23:57:12 18° 65° (ENE) 00:00:11 434.975-435.025
QB50P2 30 Sep 23:56:03 23:56:41 10° 90° (E) 23:57:20 145.880/145.840
POLYITAN 1 30 Sep 23:58:12 23:58:51 10° 90° (E) 23:59:30 437.675
UNISAT 6 01 Oct 00:01:04 00:05:31 85° 283° (WNW) 00:10:04 437.425
CUBEBUG 1 01 Oct 00:07:36 00:11:51 49° 72° (ENE) 00:16:06 437.445
50 SAT 01 Oct 00:11:56 00:15:16 35° 72° (ENE) 00:18:38 437.505
VELOX 1 01 Oct 00:12:12 00:16:23 42° 71° (ENE) 00:20:36 145.980
